CW3467 Weather Reports


Display with metric or nautical units.
time (UTC)temp
F
wind
direction
speed
MPH
gust
MPH
rain 1hr
in
rain 24hr
in
rain mn
in
humidity
%
barometer
mb
20260901073004 68 243 1.0 3.0 0.00 0.00 0.00 80 1023.0
20260901072504 67 248 1.0 3.0 0.00 0.00 0.00 81 1022.9
20260901072004 67 241 1.0 3.0 0.00 0.00 0.00 81 1023.1
20260901071504 67 236 1.0 2.0 0.00 0.00 0.00 81 1022.8
20260901071004 66 237 1.0 2.0 0.00 0.00 0.00 81 1023.0
20260901070504 66 234 0.0 2.0 0.00 0.00 0.00 82 1023.1
20260901070004 66 235 0.0 1.0 0.00 0.00 0.00 82 1023.0
20260901065504 65 238 0.0 1.0 0.00 0.00 0.00 84 1023.1
20260901065003 65 237 0.0 1.0 0.00 0.00 0.00 85 1023.0
20260901064504 65 236 0.0 1.0 0.00 0.00 0.00 86 1023.1
20260901064004 64 235 0.0 1.0 0.00 0.00 0.00 87 1022.9
20260901063524 65 231 0.0 1.0 0.00 0.00 0.00 87 1023.0
20260901063003 65 231 0.0 1.0 0.00 0.00 0.00 87 1023.2
20260901062503 65 230 0.0 1.0 0.00 0.00 0.00 86 1023.1
20260901062004 65 199 0.0 1.0 0.00 0.00 0.00 86 1023.0
20260901061503 65 199 0.0 1.0 0.00 0.00 0.00 86 1022.9
20260901061004 65 0 0.0 0.0 0.00 0.00 0.00 86 1023.0
20260901060503 64 0 0.0 0.0 0.00 0.00 0.00 86 1022.9
20260901060003 64 0 0.0 0.0 0.00 0.00 0.00 86 1023.0
20260901055525 64 230 0.0 1.0 0.00 0.00 0.00 87 1023.0
20260901055004 64 233 0.0 1.0 0.00 0.00 0.00 86 1023.0
20260901054504 64 224 1.0 2.0 0.00 0.00 0.00 86 1022.8
20260901054004 64 221 1.0 2.0 0.00 0.00 0.00 86 1022.8
20260901053503 64 224 0.0 2.0 0.00 0.00 0.00 84 1022.7
20260901053004 64 225 0.0 1.0 0.00 0.00 0.00 85 1022.7
20260901052524 64 220 0.0 1.0 0.00 0.00 0.00 85 1022.7
20260901052004 64 219 0.0 1.0 0.00 0.00 0.00 85 1022.5
20260901051504 63 223 0.0 1.0 0.00 0.00 0.00 86 1022.7
20260901051004 63 223 0.0 1.0 0.00 0.00 0.00 86 1022.7
20260901050503 63 0 0.0 0.0 0.00 0.00 0.00 87 1022.7
20260901050003 63 0 0.0 0.0 0.00 0.00 0.00 87 1022.8
20260901045503 63 0 0.0 0.0 0.00 0.00 0.00 86 1022.5
20260901045004 64 187 0.0 2.0 0.00 0.00 0.00 86 1022.5
20260901044524 64 198 0.0 2.0 0.00 0.00 0.00 86 1022.8
20260901044004 64 220 0.0 1.0 0.00 0.00 0.00 87 1022.5
20260901043503 64 222 0.0 1.0 0.00 0.00 0.00 87 1022.5
20260901043003 64 227 0.0 1.0 0.00 0.00 0.00 86 1022.5
20260901042503 64 0 0.0 0.0 0.00 0.00 0.00 86 1022.5
20260901042003 64 0 0.0 0.0 0.00 0.00 0.00 85 1022.4
20260901041504 65 216 0.0 1.0 0.00 0.00 0.00 85 1022.7
20260901041003 65 216 0.0 1.0 0.00 0.00 0.00 84 1022.7
20260901040504 65 204 0.0 1.0 0.00 0.00 0.00 84 1022.9
20260901040003 65 194 0.0 1.0 0.00 0.00 0.00 84 1022.9
20260901035525 65 203 0.0 2.0 0.00 0.00 0.00 85 1022.9
20260901035003 65 218 0.0 2.0 0.00 0.00 0.00 85 1022.8
20260901034503 65 214 0.0 1.0 0.00 0.00 0.00 86 1022.9
20260901034004 65 202 0.0 1.0 0.00 0.00 0.00 85 1022.8
20260901033503 64 221 0.0 1.0 0.00 0.00 0.00 85 1022.7
20260901033003 65 231 0.0 2.0 0.00 0.00 0.00 84 1022.9
20260901032504 66 227 0.0 2.0 0.00 0.00 0.00 85 1022.9
20260901032004 66 221 0.0 1.0 0.00 0.00 0.00 85 1022.7
20260901031524 66 221 0.0 1.0 0.00 0.00 0.00 84 1022.8
20260901031003 65 224 0.0 1.0 0.00 0.00 0.00 83 1023.1
20260901030503 65 222 0.0 1.0 0.00 0.00 0.00 84 1022.9
20260901030004 65 221 0.0 1.0 0.00 0.00 0.00 85 1022.8
20260901025504 65 232 0.0 1.0 0.00 0.00 0.00 85 1022.5
20260901025004 66 220 0.0 1.0 0.00 0.00 0.00 83 1022.9
20260901024504 66 213 0.0 1.0 0.00 0.00 0.00 82 1022.9
20260901024004 66 214 0.0 2.0 0.00 0.00 0.00 82 1022.9
20260901023525 66 216 0.0 2.0 0.00 0.00 0.00 82 1023.1
20260901023025 66 217 0.0 2.0 0.00 0.00 0.00 83 1023.1
20260901022504 66 205 0.0 1.0 0.00 0.00 0.00 82 1023.1
20260901022003 65 229 0.0 1.0 0.00 0.00 0.00 81 1023.0
20260901021504 66 232 1.0 2.0 0.00 0.00 0.00 81 1023.0
20260901021004 66 235 1.0 2.0 0.00 0.00 0.00 81 1022.9
20260901020504 66 235 1.0 2.0 0.00 0.00 0.00 82 1022.8
20260901020004 66 234 0.0 1.0 0.00 0.00 0.00 82 1023.0
20260901015503 67 227 0.0 1.0 0.00 0.00 0.00 82 1022.8
20260901015025 67 227 0.0 1.0 0.00 0.00 0.00 80 1022.9
20260901014504 67 226 0.0 1.0 0.00 0.00 0.00 80 1022.8
20260901014004 67 177 0.0 1.0 0.00 0.00 0.00 81 1022.9
20260901013504 67 205 0.0 2.0 0.00 0.00 0.00 80 1023.0
20260901013004 67 215 0.0 2.0 0.00 0.00 0.00 81 1022.9
20260901012504 67 219 0.0 1.0 0.00 0.00 0.00 80 1022.8
20260901012004 67 219 0.0 1.0 0.00 0.00 0.00 80 1023.0
20260901011504 67 223 0.0 1.0 0.00 0.00 0.00 81 1023.0
20260901011004 67 228 0.0 1.0 0.00 0.00 0.00 81 1023.1
20260901010525 68 228 0.0 1.0 0.00 0.00 0.00 80 1023.1
20260901010004 69 218 1.0 2.0 0.00 0.00 0.00 80 1023.1
20260901005503 69 219 1.0 2.0 0.00 0.00 0.00 78 1023.0
20260901005004 69 220 1.0 1.0 0.00 0.00 0.00 78 1022.9
20260901004503 68 221 0.0 1.0 0.00 0.00 0.00 78 1022.9
20260901004004 68 221 0.0 1.0 0.00 0.00 0.00 77 1023.0
20260901003504 68 234 0.0 1.0 0.00 0.00 0.00 78 1023.0
20260901003003 68 223 0.0 1.0 0.00 0.00 0.00 78 1023.0
20260901002525 68 223 0.0 1.0 0.00 0.00 0.00 77 1023.1
20260901002004 68 231 0.0 1.0 0.00 0.00 0.00 77 1022.9
20260901001525 69 235 0.0 1.0 0.00 0.00 0.00 77 1023.0
20260901001003 69 232 0.0 1.0 0.00 0.00 0.00 75 1022.9
20260901000503 69 227 0.0 1.0 0.00 0.00 0.00 75 1022.9
20260901000004 69 222 0.0 1.0 0.00 0.00 0.00 74 1022.9
20260831235504 69 223 0.0 1.0 0.00 0.00 0.00 73 1022.9
20260831235024 69 229 0.0 2.0 0.00 0.00 0.00 72 1023.0
20260831234503 70 227 0.0 2.0 0.00 0.00 0.00 71 1022.9
20260831234003 71 218 1.0 2.0 0.00 0.00 0.00 69 1022.9
20260831233504 70 221 1.0 2.0 0.00 0.00 0.00 69 1023.0
20260831233003 70 226 0.0 1.0 0.00 0.00 0.00 70 1023.1
20260831232504 70 220 0.0 1.0 0.00 0.00 0.00 70 1022.9
20260831232004 70 213 0.0 1.0 0.00 0.00 0.00 70 1022.8
20260831231503 71 212 1.0 2.0 0.00 0.00 0.00 69 1022.7
20260831231004 71 213 1.0 2.0 0.00 0.00 0.00 69 1022.7
20260831230504 70 221 1.0 2.0 0.00 0.00 0.00 70 1022.7
20260831230003 70 228 0.0 1.0 0.00 0.00 0.00 71 1022.7
20260831225524 70 228 0.0 1.0 0.00 0.00 0.00 70 1022.8
20260831225024 70 224 0.0 1.0 0.00 0.00 0.00 70 1022.9
20260831224503 70 224 0.0 1.0 0.00 0.00 0.00 70 1022.8
20260831224003 70 223 0.0 1.0 0.00 0.00 0.00 70 1022.5
20260831223503 71 0 0.0 0.0 0.00 0.00 0.00 69 1022.5
20260831223003 71 223 0.0 1.0 0.00 0.00 0.00 69 1022.5
20260831222503 71 222 1.0 2.0 0.00 0.00 0.00 69 1022.5
20260831222003 72 222 0.0 2.0 0.00 0.00 0.00 68 1022.4
20260831221503 72 221 0.0 2.0 0.00 0.00 0.00 67 1022.2
20260831221003 72 204 0.0 1.0 0.00 0.00 0.00 67 1022.3
20260831220503 72 221 0.0 1.0 0.00 0.00 0.00 67 1022.4
20260831220003 73 219 0.0 2.0 0.00 0.00 0.00 66 1022.2
20260831215503 73 218 0.0 2.0 0.00 0.00 0.00 66 1022.2
20260831215024 73 216 0.0 1.0 0.00 0.00 0.00 66 1022.3
20260831214503 73 237 0.0 1.0 0.00 0.00 0.00 67 1022.1
20260831214003 73 229 0.0 1.0 0.00 0.00 0.00 65 1022.1
20260831213524 74 228 0.0 1.0 0.00 0.00 0.00 65 1022.2
20260831213024 74 230 1.0 2.0 0.00 0.00 0.00 63 1022.0
20260831212503 74 227 1.0 2.0 0.00 0.00 0.00 64 1022.0
20260831212003 74 225 0.0 2.0 0.00 0.00 0.00 63 1022.0
20260831211503 74 225 0.0 2.0 0.00 0.00 0.00 62 1021.9
20260831211024 74 221 0.0 2.0 0.00 0.00 0.00 63 1021.8
20260831210503 74 219 0.0 2.0 0.00 0.00 0.00 63 1021.9
20260831210024 74 221 0.0 1.0 0.00 0.00 0.00 64 1021.9
20260831205503 74 224 0.0 1.0 0.00 0.00 0.00 64 1021.7
20260831205003 75 224 0.0 1.0 0.00 0.00 0.00 63 1021.8
20260831204503 75 225 0.0 2.0 0.00 0.00 0.00 62 1021.7
20260831204003 76 232 1.0 2.0 0.00 0.00 0.00 61 1021.7
20260831203503 76 234 1.0 2.0 0.00 0.00 0.00 61 1021.7
20260831203003 76 232 2.0 3.0 0.00 0.00 0.00 60 1021.5
20260831202503 76 250 2.0 4.0 0.00 0.00 0.00 59 1021.6
20260831202003 76 254 2.0 4.0 0.00 0.00 0.00 58 1021.5
20260831201503 76 238 1.0 3.0 0.00 0.00 0.00 56 1021.4
20260831201003 77 236 2.0 3.0 0.00 0.00 0.00 54 1021.3
20260831200503 77 238 2.0 4.0 0.00 0.00 0.00 54 1021.5
20260831200003 77 254 2.0 6.0 0.00 0.00 0.00 53 1021.2
20260831195503 77 254 2.0 6.0 0.00 0.00 0.00 52 1021.4
20260831195003 76 236 1.0 2.0 0.00 0.00 0.00 52 1021.1
20260831194503 76 226 0.0 1.0 0.00 0.00 0.00 52 1021.1
20260831194003 77 231 1.0 3.0 0.00 0.00 0.00 52 1021.1
20260831193524 77 235 0.0 3.0 0.00 0.00 0.00 52 1020.8
20260831193024 77 240 0.0 2.0 0.00 0.00 0.00 52 1020.6
20260831192503 77 232 0.0 2.0 0.00 0.00 0.00 51 1020.5
20260831192003 77 221 0.0 1.0 0.00 0.00 0.00 51 1020.5
20260831191503 78 227 0.0 2.0 0.00 0.00 0.00 50 1020.3
20260831191003 78 230 0.0 2.0 0.00 0.00 0.00 50 1020.5
20260831190503 78 230 0.0 1.0 0.00 0.00 0.00 49 1020.4
20260831190003 78 225 0.0 1.0 0.00 0.00 0.00 48 1020.3
20260831185503 79 246 1.0 2.0 0.00 0.00 0.00 47 1020.0
20260831185003 80 244 2.0 6.0 0.00 0.00 0.00 46 1020.1
20260831184503 80 253 2.0 8.0 0.00 0.00 0.00 45 1020.0
20260831184003 80 260 3.0 8.0 0.00 0.00 0.00 45 1019.9
20260831183503 80 275 3.0 7.0 0.00 0.00 0.00 44 1020.0
20260831183003 81 279 3.0 7.0 0.00 0.00 0.00 44 1019.9
20260831182503 81 262 2.0 7.0 0.00 0.00 0.00 44 1020.0
20260831182003 81 245 1.0 4.0 0.00 0.00 0.00 44 1020.0
20260831181506 82 237 1.0 6.0 0.00 0.00 0.00 46 1019.8
20260831181003 83 271 2.0 6.0 0.00 0.00 0.00 45 1019.9
20260831180503 83 291 3.0 8.0 0.00 0.00 0.00 44 1019.7
20260831180003 83 276 3.0 8.0 0.00 0.00 0.00 44 1019.8
20260831175503 84 241 2.0 4.0 0.00 0.00 0.00 44 1019.7
20260831175005 85 262 2.0 8.0 0.00 0.00 0.00 43 1019.6
20260831174524 85 300 3.0 9.0 0.00 0.00 0.00 43 1019.5
20260831174003 85 297 3.0 10.0 0.00 0.00 0.00 43 1019.5
20260831173503 85 271 2.0 10.0 0.00 0.00 0.00 42 1019.6
20260831173024 86 269 2.0 8.0 0.00 0.00 0.00 42 1019.5
20260831172503 86 293 3.0 11.0 0.00 0.00 0.00 42 1019.6
20260831172003 86 287 3.0 11.0 0.00 0.00 0.00 42 1019.6
20260831171503 87 240 2.0 8.0 0.00 0.00 0.00 41 1019.4
20260831171003 87 294 3.0 10.0 0.00 0.00 0.00 41 1019.4
20260831170524 87 344 3.0 10.0 0.00 0.00 0.00 41 1019.4
20260831170003 88 288 2.0 11.0 0.00 0.00 0.00 40 1019.1
20260831165524 88 231 2.0 13.0 0.00 0.00 0.00 39 1019.1
20260831165003 88 256 3.0 13.0 0.00 0.00 0.00 40 1019.5
20260831164503 88 278 3.0 8.0 0.00 0.00 0.00 39 1019.2
20260831164003 89 271 2.0 8.0 0.00 0.00 0.00 39 1019.2
20260831163503 89 281 2.0 8.0 0.00 0.00 0.00 36 1019.2
20260831163003 89 279 2.0 7.0 0.00 0.00 0.00 37 1019.4
20260831162503 90 262 2.0 6.0 0.00 0.00 0.00 36 1019.2
20260831162024 89 269 3.0 9.0 0.00 0.00 0.00 37 1019.2
20260831161503 89 281 2.0 9.0 0.00 0.00 0.00 36 1019.4
20260831161003 90 217 1.0 3.0 0.00 0.00 0.00 36 1019.4
20260831160503 90 249 2.0 8.0 0.00 0.00 0.00 36 1019.1
20260831160003 91 283 2.0 8.0 0.00 0.00 0.00 34 1019.2
20260831155503 91 300 2.0 8.0 0.00 0.00 0.00 36 1019.1
20260831155003 91 291 2.0 8.0 0.00 0.00 0.00 36 1019.4
20260831154503 91 255 1.0 7.0 0.00 0.00 0.00 35 1019.4
20260831154003 91 248 2.0 6.0 0.00 0.00 0.00 36 1019.5
20260831153503 90 268 2.0 11.0 0.00 0.00 0.00 35 1019.4
20260831153003 90 301 2.0 11.0 0.00 0.00 0.00 36 1019.7
20260831152503 91 296 2.0 8.0 0.00 0.00 0.00 35 1019.5
20260831152024 91 272 2.0 8.0 0.00 0.00 0.00 36 1019.6
20260831151503 92 273 1.0 6.0 0.00 0.00 0.00 37 1019.5
20260831151003 92 52 1.0 6.0 0.00 0.00 0.00 36 1019.5
20260831150503 91 60 1.0 6.0 0.00 0.00 0.00 36 1019.6
20260831150003 89 86 2.0 6.0 0.00 0.00 0.00 37 1019.8
20260831145503 89 91 2.0 6.0 0.00 0.00 0.00 36 1019.6
20260831145024 89 47 2.0 8.0 0.00 0.00 0.00 36 1019.7
20260831144503 88 42 2.0 8.0 0.00 0.00 0.00 36 1019.8
20260831144003 90 42 2.0 6.0 0.00 0.00 0.00 36 1019.7
20260831143503 90 1 2.0 7.0 0.00 0.00 0.00 36 1020.0
20260831143003 90 325 2.0 7.0 0.00 0.00 0.00 36 1020.0
20260831142524 91 55 2.0 7.0 0.00 0.00 0.00 36 1019.8
20260831142003 90 47 2.0 7.0 0.00 0.00 0.00 36 1019.8
20260831141503 90 314 2.0 8.0 0.00 0.00 0.00 36 1020.0
20260831141003 90 284 3.0 8.0 0.00 0.00 0.00 37 1020.0
20260831140503 91 301 2.0 8.0 0.00 0.00 0.00 36 1020.1
20260831140003 90 283 3.0 8.0 0.00 0.00 0.00 37 1020.1
20260831135503 90 275 2.0 8.0 0.00 0.00 0.00 36 1020.2
20260831135003 90 303 2.0 14.0 0.00 0.00 0.00 36 1020.2
20260831134503 90 300 3.0 14.0 0.00 0.00 0.00 36 1020.4
20260831134003 89 287 2.0 7.0 0.00 0.00 0.00 36 1020.2
20260831133503 91 263 2.0 7.0 0.00 0.00 0.00 36 1020.3
20260831133003 90 243 2.0 7.0 0.00 0.00 0.00 36 1020.3
20260831132503 90 219 1.0 6.0 0.00 0.00 0.00 35 1020.3
20260831132003 89 259 2.0 9.0 0.00 0.00 0.00 35 1020.1
20260831131503 88 280 2.0 9.0 0.00 0.00 0.00 37 1020.6
20260831131004 89 260 1.0 6.0 0.00 0.00 0.00 37 1020.7
20260831130503 89 265 2.0 6.0 0.00 0.00 0.00 36 1020.4
20260831130024 89 279 2.0 6.0 0.00 0.00 0.00 36 1020.5
20260831125503 87 54 2.0 7.0 0.00 0.00 0.00 37 1020.6
20260831125003 88 8 2.0 7.0 0.00 0.00 0.00 37 1020.5
20260831124503 88 51 2.0 9.0 0.00 0.00 0.00 39 1020.8
20260831124003 86 50 2.0 9.0 0.00 0.00 0.00 39 1020.8
20260831123503 88 79 2.0 8.0 0.00 0.00 0.00 39 1021.1
20260831123003 88 57 2.0 8.0 0.00 0.00 0.00 39 1020.8
20260831122503 87 269 2.0 6.0 0.00 0.00 0.00 38 1021.1
20260831122003 87 266 1.0 4.0 0.00 0.00 0.00 39 1020.8
20260831121524 89 272 2.0 7.0 0.00 0.00 0.00 38 1020.7
20260831121003 88 229 2.0 7.0 0.00 0.00 0.00 38 1021.1
20260831120503 87 32 2.0 6.0 0.00 0.00 0.00 38 1020.9
20260831120003 85 56 2.0 6.0 0.00 0.00 0.00 41 1021.2
20260831115503 84 48 2.0 8.0 0.00 0.00 0.00 41 1021.2
20260831115024 84 50 2.0 8.0 0.00 0.00 0.00 41 1021.1
20260831114503 84 43 2.0 7.0 0.00 0.00 0.00 43 1021.3
20260831114003 86 33 2.0 6.0 0.00 0.00 0.00 39 1021.2
20260831113524 85 51 2.0 6.0 0.00 0.00 0.00 40 1021.3
20260831113003 84 58 2.0 7.0 0.00 0.00 0.00 40 1021.3
20260831112503 85 49 2.0 7.0 0.00 0.00 0.00 40 1021.4
20260831112003 84 343 1.0 6.0 0.00 0.00 0.00 42 1021.3
20260831111503 84 52 1.0 4.0 0.00 0.00 0.00 42 1021.4
20260831111003 83 26 1.0 4.0 0.00 0.00 0.00 42 1021.5
20260831110503 83 246 1.0 4.0 0.00 0.00 0.00 43 1021.3
20260831110003 83 301 1.0 4.0 0.00 0.00 0.00 45 1021.5
20260831105503 82 350 1.0 4.0 0.00 0.00 0.00 44 1021.5
20260831105003 82 20 1.0 4.0 0.00 0.00 0.00 45 1021.6
20260831104503 81 119 1.0 4.0 0.00 0.00 0.00 45 1021.8
20260831104024 81 134 1.0 4.0 0.00 0.00 0.00 46 1021.6
20260831103503 82 0 0.0 0.0 0.00 0.00 0.00 46 1021.7
20260831103003 81 0 0.0 0.0 0.00 0.00 0.00 48 1021.5
20260831102503 82 0 0.0 0.0 0.00 0.00 0.00 47 1021.9
20260831102003 81 0 0.0 0.0 0.00 0.00 0.00 48 1021.7
20260831101503 81 0 0.0 0.0 0.00 0.00 0.00 47 1021.7
20260831101003 81 0 0.0 0.0 0.00 0.00 0.00 47 1021.9
20260831100503 81 0 0.0 0.0 0.00 0.00 0.00 47 1021.8
20260831100003 80 0 0.0 0.0 0.00 0.00 0.00 47 1021.6
20260831095503 79 0 0.0 0.0 0.00 0.00 0.00 49 1021.8
20260831095003 79 0 0.0 0.0 0.00 0.00 0.00 49 1021.7
20260831094503 78 0 0.0 0.0 0.00 0.00 0.00 50 1021.6
20260831094003 80 0 0.0 0.0 0.00 0.00 0.00 49 1021.8
20260831093503 79 0 0.0 0.0 0.00 0.00 0.00 50 1021.6
20260831093024 78 0 0.0 0.0 0.00 0.00 0.00 51 1021.8
20260831092503 78 0 0.0 0.0 0.00 0.00 0.00 51 1021.8
20260831092003 78 0 0.0 0.0 0.00 0.00 0.00 50 1021.8
20260831091503 77 0 0.0 0.0 0.00 0.00 0.00 50 1021.8
20260831091003 77 0 0.0 0.0 0.00 0.00 0.00 51 1021.9
20260831090524 76 0 0.0 0.0 0.00 0.00 0.00 53 1022.0
20260831090003 75 0 0.0 0.0 0.00 0.00 0.00 54 1021.8
20260831085524 75 0 0.0 0.0 0.00 0.00 0.00 56 1021.9
20260831085003 76 0 0.0 0.0 0.00 0.00 0.00 56 1021.8
20260831084503 75 0 0.0 0.0 0.00 0.00 0.00 55 1021.8
20260831084003 75 0 0.0 0.0 0.00 0.00 0.00 57 1021.7
20260831083503 74 0 0.0 0.0 0.00 0.00 0.00 56 1021.7
20260831083003 74 0 0.0 0.0 0.00 0.00 0.00 58 1021.6
20260831082503 73 0 0.0 0.0 0.00 0.00 0.00 58 1021.6
20260831082003 72 0 0.0 0.0 0.00 0.00 0.00 61 1021.7
20260831081503 72 0 0.0 0.0 0.00 0.00 0.00 59 1021.4
20260831081003 71 0 0.0 0.0 0.00 0.00 0.00 61 1021.7
20260831080503 71 0 0.0 0.0 0.00 0.00 0.00 61 1021.5
20260831080003 70 0 0.0 0.0 0.00 0.00 0.00 63 1021.6
20260831075503 70 0 0.0 0.0 0.00 0.00 0.00 63 1021.6
20260831075003 69 0 0.0 0.0 0.00 0.00 0.00 64 1021.5
20260831074503 68 0 0.0 0.0 0.00 0.00 0.00 66 1021.5
20260831074003 68 0 0.0 0.0 0.00 0.00 0.00 67 1021.4
20260831073524 67 0 0.0 0.0 0.00 0.00 0.00 66 1021.6